map of AHU home
Great Circle Mapper logo
AHU - Airport
Location
City:  Al Hoceima, Morocco
Name:Cherif al Idrissi
ICAO / IATA:GMTA / AHU

Details
Type:Airport (Aerodrome, Airfield)
Use:Public/Civil, International (customs port of entry)
Latitude:3510'38"N (35.177103)
Longitude:350'22"W (-3.839524)
Datum:WGS 1984
Elevation:95 ft (29 m)
Variation:1.0W (WMM2015 magnetic declination)
Runways:1
Longest:8202 × 148 ft (2500 × 45 m), paved

Time
Time Zone:UTC+0 (DST+1)
Local Time:

Weather
METAR:GMTA 181000Z 20004KT CAVOK 19/04 Q1026 NOSIG
TAF:GMTA 180500Z 1806/1912 16010KT CAVOK
BECMG 1811/1813 36005KT
BECMG 1900/1903 17010KT

Related Locations
Nearby:
Farthest:NZOX: 12354 mi / 19882 km
Okiwi Station, NZ

Find:

   beyond  
but within

Other Information
Maps:
NOTAMs:
Links:
Sources:

  
flag of Morocco   

Sectional Chart

Flight Planning
at skyvector.com

Satellite Image

Google Maps Satellite View

 

Copyright © 2004-2014 Karl L. Swartz. All rights reserved.
The Great Circle Mapper name and logo are trademarks of the Great Circle Mapper.
All other trademarks mentioned herein belong to their respective owners.
Please see credits for attibutions and further copyright information.

  Follow gcmap on Facebook Follow gcmap on Twitter

hCard Microformat

Geo Microformat